Change the Weather History Date:

Saturday, September 28, 2013

  Actual Average Record
Temperature  
Mean Temperature 57 °F -  
Max Temperature 73 °F 68 °F 84 °F (2014)
Min Temperature 42 °F 44 °F 32 °F (1989)
Degree Days  
Heating Degree Days 8    
Growing Degree Days 7 (Base 50)    
Moisture  
Dew Point 48 °F    
Average Humidity 83    
Maximum Humidity 100    
Minimum Humidity 46    
Precipitation  
Precipitation 0.01 in - - ()
Sea Level Pressure  
Sea Level Pressure 30.31 in    
Wind  
Wind Speed 2 mph (NE)    
Max Wind Speed 10 mph    
Max Gust Speed -    
Visibility 8 miles    
Events Fog    
Averages and records for this station are not official NWS values.
T = Trace of Precipitation, MM = Missing Value Source: NWS Daily Summary

Daily Weather History Graph

Daily Weather History Graph

Search for Another Location

Airport or City:

Trip Planner

Search our weather history database for the weather conditions in past years. The results will help you decide how hot, cold, wet, or windy it might be!

Date:

Astronomy

Sep. 28, 2013 Rise Set
Actual Time 6:39 AM EDT 6:31 PM EDT
Civil Twilight 6:11 AM EDT 6:59 PM EDT
Nautical Twilight 5:38 AM EDT 7:32 PM EDT
Astronomical Twilight 5:05 AM EDT 8:05 PM EDT
Moon 12:17 AM EDT (9/28) 2:54 PM EDT (9/28)
Length of Visible Light 12h 48m
Length of Day
11h 52m
Last Quarter, 36% of the Moon is Illuminated
Sep 28
Last Quarter
Oct 4
New
Oct 11
First Quarter
Oct 18
Full
Oct 26
Last Quarter

Hourly Weather History & Observations

Time (EDT) Temp. Dew Point Humidity Pressure Visibility Wind Dir Wind Speed Gust Speed Precip Events Conditions
12:56 AM 46.0 °F 45.0 °F 96% 30.30 in 10.0 mi Calm Calm - N/A   Clear
1:56 AM 46.0 °F 45.0 °F 96% 30.30 in 10.0 mi Calm Calm - N/A   Partly Cloudy
2:49 AM 44.6 °F 42.8 °F 93% 30.25 in 2.5 mi Calm Calm - N/A   Clear
2:56 AM 44.1 °F 43.0 °F 96% 30.30 in 10.0 mi Calm Calm - N/A   Clear
3:56 AM 44.1 °F 43.0 °F 96% 30.30 in 10.0 mi Calm Calm - N/A   Clear
4:56 AM 44.1 °F 43.0 °F 96% 30.31 in 5.0 mi Calm Calm - N/A   Clear
5:56 AM 43.0 °F 41.0 °F 93% 30.32 in 10.0 mi Calm Calm - N/A   Clear
6:56 AM 42.1 °F 42.1 °F 100% 30.34 in 10.0 mi Calm Calm - N/A   Partly Cloudy
7:56 AM 48.0 °F 46.0 °F 93% 30.35 in 10.0 mi Calm Calm - N/A   Partly Cloudy
8:56 AM 55.9 °F 52.0 °F 87% 30.36 in 10.0 mi NNW 3.5 mph - N/A   Clear
9:31 AM 60.8 °F 53.6 °F 77% 30.32 in 10.0 mi North 3.5 mph - N/A   Clear
9:56 AM 64.0 °F 53.1 °F 67% 30.36 in 10.0 mi NNE 5.8 mph - N/A   Clear
10:56 AM 68.0 °F 53.1 °F 59% 30.36 in 10.0 mi Variable 4.6 mph - N/A   Clear
11:56 AM 71.1 °F 53.1 °F 53% 30.35 in 10.0 mi North 6.9 mph - N/A   Clear
12:56 PM 72.0 °F 52.0 °F 49% 30.33 in 10.0 mi NE 8.1 mph - N/A   Scattered Clouds
1:56 PM 72.0 °F 51.1 °F 48% 30.32 in 10.0 mi NE 5.8 mph - N/A   Mostly Cloudy
2:56 PM 72.0 °F 50.0 °F 46% 30.31 in 10.0 mi ENE 10.4 mph - N/A   Scattered Clouds
3:56 PM 71.1 °F 50.0 °F 47% 30.31 in 10.0 mi East 8.1 mph - N/A   Clear
4:56 PM 69.1 °F 50.0 °F 51% 30.31 in 10.0 mi East 9.2 mph - N/A   Clear
5:56 PM 64.9 °F 52.0 °F 63% 30.32 in 10.0 mi SE 9.2 mph - N/A   Clear
6:56 PM 60.1 °F 51.1 °F 72% 30.31 in 10.0 mi Calm Calm - N/A   Clear
7:56 PM 57.0 °F 51.1 °F 81% 30.31 in 10.0 mi Calm Calm - N/A   Clear
8:56 PM 52.0 °F 50.0 °F 93% 30.32 in 10.0 mi Calm Calm - N/A   Clear
9:56 PM 51.1 °F 50.0 °F 96% 30.32 in 10.0 mi Calm Calm - N/A   Clear
10:56 PM 48.0 °F 46.0 °F 93% 30.31 in 1.0 mi Calm Calm - N/A   Clear
11:03 PM 46.4 °F 46.4 °F 100% 30.27 in 0.8 mi Calm Calm - N/A   Clear
11:11 PM 46.4 °F 46.4 °F 100% 30.27 in 0.2 mi Calm Calm - N/A Fog Fog
11:22 PM 46.4 °F 46.4 °F 100% 30.27 in 1.0 mi Calm Calm - N/A   Mist
11:24 PM 46.4 °F 46.4 °F 100% 30.27 in 2.0 mi Calm Calm - N/A   Partly Cloudy
11:31 PM 46.4 °F 46.4 °F 100% 30.26 in 10.0 mi Calm Calm - 0.01 in   Partly Cloudy
11:56 PM 46.0 °F 46.0 °F 100% 30.30 in 3.0 mi Calm Calm - 0.01 in   Scattered Clouds
11:58 PM 46.4 °F 46.4 °F 100% 30.26 in 1.8 mi Calm Calm - N/A   Scattered Clouds